Location: Bacharowice
(49.9333°N, 19.5833°E)
Time: 03:59:52
(UTC+00:00)

ISS - Pass Details

Date: 11 May 2021
Orbit: 417 x 422 km, 51.6° (Epoch: 22 June)

Event Time Altitude Azimuth Distance (km) Brightness Sun altitude
Exits shadow 23:19:28 68° 26° (NNE) 458 -3.5 -21.3°
Drops below altitude 10° 23:22:37 10° 75° (ENE) 1,509 -0.6 -21.2°
Sets 23:24:44 0° 78° (ENE) 2,375 0.4 -21.2°
